DAL1194 KLAX-KSLC

Flight info

Callsign DAL1194
Flight time N/A
Altitude 33000
Route ORCKA5 LAS Q70 BLIPP Q842 WINEN MLF PITTT2
Aircraft B753/M-SDE2E3FGHIJ3J4J7RWXY/LB1

Departure

Time N/A
Airport Los Angeles International Airport (KLAX)

Arrival

Time 2026-05-04 20:58
Airport Salt Lake City International Airport (KSLC)
Time Latitude Longitude Altitude Speed Heading
2026-05-04 20:36 38.81568 -112.76965 32909 ft 520 kts 15°
2026-05-04 20:36 38.84860 -112.75193 32911 ft 520 kts 15°
2026-05-04 20:37 38.91533 -112.71596 32914 ft 519 kts 15°
2026-05-04 20:38 39.03320 -112.65216 32906 ft 517 kts 15°
2026-05-04 20:38 39.09931 -112.61626 32902 ft 516 kts 15°
2026-05-04 20:39 39.16538 -112.58033 32895 ft 515 kts 15°
2026-05-04 20:39 39.23085 -112.54463 32887 ft 513 kts 15°
2026-05-04 20:40 39.26376 -112.52669 32651 ft 512 kts 15°
2026-05-04 20:40 39.29710 -112.51154 32478 ft 505 kts
2026-05-04 20:40 39.33080 -112.49995 32119 ft 497 kts
2026-05-04 20:40 39.36295 -112.48496 31162 ft 485 kts 15°
2026-05-04 20:41 39.39341 -112.46791 30321 ft 465 kts 17°
2026-05-04 20:41 39.42275 -112.45203 30040 ft 453 kts 15°
2026-05-04 20:41 39.45191 -112.43683 29496 ft 451 kts 15°
2026-05-04 20:41 39.48104 -112.42188 28931 ft 448 kts 15°
2026-05-04 20:42 39.50990 -112.40713 28394 ft 442 kts 16°
2026-05-04 20:42 39.53796 -112.39274 27900 ft 430 kts 17°
2026-05-04 20:42 39.56576 -112.37852 27370 ft 428 kts 17°
2026-05-04 20:42 39.59347 -112.36436 26824 ft 425 kts 17°
2026-05-04 20:43 39.62087 -112.35036 26298 ft 421 kts 18°
2026-05-04 20:43 39.64803 -112.33647 25777 ft 418 kts 19°
2026-05-04 20:43 39.67494 -112.32270 25260 ft 414 kts 19°
2026-05-04 20:43 39.70123 -112.30923 24745 ft 410 kts 20°
2026-05-04 20:44 39.72794 -112.29554 24227 ft 405 kts 20°
2026-05-04 20:44 39.75407 -112.28214 23716 ft 401 kts 20°
2026-05-04 20:44 39.77940 -112.26913 23125 ft 387 kts 21°
2026-05-04 20:44 39.80394 -112.25650 22674 ft 377 kts 21°
2026-05-04 20:45 39.82870 -112.24375 22138 ft 378 kts 21°
2026-05-04 20:45 39.85283 -112.23132 21593 ft 378 kts 21°
2026-05-04 20:45 39.87723 -112.21875 21063 ft 376 kts 21°
2026-05-04 20:45 39.90152 -112.20621 20539 ft 375 kts 22°
2026-05-04 20:46 39.92570 -112.19373 20018 ft 373 kts 22°
2026-05-04 20:46 39.94983 -112.18125 19499 ft 372 kts 22°
2026-05-04 20:46 39.97381 -112.16885 18980 ft 370 kts 22°
2026-05-04 20:46 39.99773 -112.15646 18459 ft 368 kts 22°
2026-05-04 20:47 40.02147 -112.14416 17945 ft 367 kts 22°
2026-05-04 20:47 40.04514 -112.13188 17431 ft 365 kts 22°
2026-05-04 20:47 40.06868 -112.11965 16923 ft 363 kts 22°
2026-05-04 20:47 40.09209 -112.10747 16417 ft 361 kts 22°
2026-05-04 20:48 40.11541 -112.09533 15909 ft 360 kts 22°
2026-05-04 20:48 40.13860 -112.08324 15409 ft 358 kts 22°
2026-05-04 20:48 40.16169 -112.07120 14908 ft 356 kts 22°
2026-05-04 20:48 40.18465 -112.05922 14407 ft 355 kts 22°
2026-05-04 20:49 40.20751 -112.04727 13911 ft 353 kts 22°
2026-05-04 20:49 40.23007 -112.03547 13372 ft 339 kts 22°
2026-05-04 20:49 40.25130 -112.02435 12935 ft 322 kts 22°
2026-05-04 20:49 40.27198 -112.01351 12516 ft 319 kts 22°
2026-05-04 20:50 40.29278 -112.00260 12111 ft 326 kts 22°
2026-05-04 20:50 40.31379 -111.99157 11714 ft 317 kts 21°
2026-05-04 20:50 40.33401 -111.98093 11212 ft 316 kts 21°
2026-05-04 20:50 40.35443 -111.97018 10981 ft 314 kts 21°
2026-05-04 20:51 40.37438 -111.95967 10887 ft 303 kts 21°
2026-05-04 20:51 40.39349 -111.94987 10852 ft 289 kts 19°
2026-05-04 20:51 40.41222 -111.94274 10848 ft 281 kts 10°
2026-05-04 20:51 40.43156 -111.93992 10851 ft 278 kts
2026-05-04 20:52 40.45080 -111.93937 10612 ft 276 kts 359°
2026-05-04 20:52 40.46975 -111.93999 10226 ft 270 kts 356°
2026-05-04 20:52 40.48555 -111.94101 9839 ft 267 kts 356°
2026-05-04 20:52 40.50488 -111.94264 9282 ft 265 kts 355°
2026-05-04 20:53 40.52363 -111.94449 9016 ft 273 kts 354°
2026-05-04 20:53 40.54264 -111.94650 8687 ft 275 kts 354°
2026-05-04 20:53 40.56176 -111.94860 8342 ft 276 kts 354°
2026-05-04 20:53 40.58097 -111.95075 7987 ft 278 kts 354°
2026-05-04 20:54 40.60002 -111.95291 7619 ft 267 kts 354°
2026-05-04 20:54 40.61773 -111.95492 7269 ft 244 kts 354°
2026-05-04 20:54 40.63394 -111.95677 6958 ft 224 kts 354°
2026-05-04 20:54 40.64881 -111.95848 6690 ft 206 kts 354°
2026-05-04 20:55 40.66229 -111.96003 6439 ft 183 kts 354°
2026-05-04 20:55 40.67418 -111.96139 6204 ft 161 kts 354°
2026-05-04 20:55 40.68500 -111.96265 5985 ft 154 kts 354°
2026-05-04 20:55 40.69563 -111.96389 5792 ft 153 kts 354°
2026-05-04 20:56 40.70625 -111.96512 5584 ft 154 kts 353°
2026-05-04 20:56 40.71697 -111.96627 5410 ft 154 kts 353°
2026-05-04 20:56 40.72760 -111.96738 5217 ft 152 kts 352°
2026-05-04 20:56 40.73806 -111.96890 5015 ft 150 kts 350°
2026-05-04 20:57 40.74835 -111.97036 4802 ft 147 kts 352°
2026-05-04 20:57 40.75824 -111.97161 4592 ft 142 kts 359°
2026-05-04 20:57 40.76800 -111.97231 4384 ft 138 kts 352°
2026-05-04 20:57 40.77733 -111.97358 4251 ft 130 kts 353°
2026-05-04 20:58 40.78494 -111.97448 4238 ft 76 kts 354°
2026-05-04 20:58 40.78712 -111.97526 4238 ft 26 kts 321°
2026-05-04 20:58 40.78821 -111.97642 4238 ft 13 kts 322°
2026-05-04 20:58 40.78863 -111.97678 4238 ft 2 kts 336°
2026-05-04 20:59 40.78916 -111.97698 4238 ft 18 kts 347°
2026-05-04 20:59 40.78973 -111.97770 4238 ft 11 kts 278°
2026-05-04 20:59 40.78967 -111.97873 4238 ft 6 kts 246°
2026-05-04 20:59 40.78942 -111.97887 4238 ft 5 kts 167°
2026-05-04 21:00 40.78930 -111.97884 4238 ft 0 kts 169°
2026-05-04 21:00 40.78929 -111.97884 4238 ft 0 kts 170°